EW9596 Weather Reports


Display with metric or nautical units.
time (UTC)temp
F
wind
direction
speed
MPH
gust
MPH
rain 1hr
in
rain 24hr
in
rain mn
in
humidity
%
barometer
mb
20260904142024 74 281 3.0 10.0 0.00 0.84 0.13 75 1014.2
20260904141524 74 240 3.0 10.0 0.00 0.84 0.13 76 1014.3
20260904141023 73 136 4.0 8.0 0.00 0.84 0.13 80 1014.3
20260904140522 72 199 1.0 4.0 0.00 0.84 0.13 82 1014.3
20260904140021 72 305 1.0 4.0 0.00 0.84 0.13 84 1014.4
20260904135521 71 261 0.0 4.0 0.00 0.84 0.13 85 1014.2
20260904135020 71 257 1.0 6.0 0.00 0.84 0.13 86 1014.2
20260904134522 70 342 2.0 13.0 0.00 0.84 0.13 88 1014.3
20260904134020 70 215 2.0 13.0 0.00 0.84 0.13 89 1014.1
20260904133519 70 315 3.0 7.0 0.00 0.84 0.13 91 1014.1
20260904133019 69 327 0.0 7.0 0.00 0.84 0.13 92 1014.1
20260904132523 70 167 2.0 5.0 0.00 0.84 0.13 93 1014.1
20260904132018 69 164 0.0 0.0 0.00 0.84 0.13 93 1014.1
20260904131518 69 163 0.0 0.0 0.00 0.84 0.13 93 1014.0
20260904131017 69 242 0.0 0.0 0.00 0.84 0.13 93 1014.0
20260904130517 68 100 0.0 0.0 0.00 0.84 0.13 93 1014.1
20260904130017 68 281 0.0 0.0 0.00 0.84 0.13 93 1014.1
20260904125518 68 146 0.0 0.0 0.00 0.85 0.13 93 1014.1
20260904125017 67 146 0.0 0.0 0.00 0.85 0.13 93 1014.1
20260904124517 67 146 0.0 0.0 0.00 0.85 0.13 93 1014.2
20260904124016 67 148 0.0 0.0 0.00 0.85 0.13 93 1014.3
20260904123521 67 148 0.0 0.0 0.00 0.85 0.13 93 1014.3
20260904123016 67 148 0.0 0.0 0.00 0.85 0.13 93 1014.3
20260904122517 67 149 0.0 0.0 0.00 0.85 0.13 93 1014.3
20260904122015 67 149 0.0 0.0 0.00 0.85 0.13 93 1014.1
20260904121519 67 148 0.0 0.0 0.00 0.85 0.13 93 1014.1
20260904121014 67 148 0.0 0.0 0.00 0.85 0.13 93 1014.0
20260904120513 67 147 0.0 0.0 0.00 0.85 0.13 93 1014.1
20260904120016 67 147 0.0 0.0 0.00 0.85 0.13 92 1014.1
20260904115513 67 146 0.0 0.0 0.00 0.85 0.13 92 1014.0
20260904115013 67 146 0.0 2.0 0.00 0.85 0.13 92 1014.0
20260904114530 67 147 0.0 1.0 0.00 0.85 0.13 92 1014.0
20260904114012 67 147 0.0 3.0 0.00 0.85 0.13 92 1014.0
20260904113512 67 146 0.0 3.0 0.00 0.85 0.13 92 1013.9
20260904113011 68 149 0.0 3.0 0.00 0.85 0.13 92 1014.0
20260904112510 68 153 1.0 3.0 0.00 0.85 0.13 92 1014.0
20260904112011 68 230 1.0 5.0 0.00 0.85 0.13 92 1014.0
20260904111507 68 288 0.0 0.0 0.00 0.85 0.13 92 1013.9
20260904111006 69 231 0.0 0.0 0.00 0.85 0.13 92 1013.9
20260904110505 69 206 0.0 0.0 0.00 0.85 0.13 93 1013.9
20260904110012 69 207 0.0 0.0 0.00 0.85 0.13 93 1013.7
20260904105506 69 234 0.0 0.0 0.00 0.85 0.13 93 1013.6
20260904105003 69 130 0.0 0.0 0.00 0.85 0.13 93 1013.6
20260904104503 69 195 0.0 0.0 0.00 0.85 0.13 93 1013.6
20260904104002 69 195 0.0 0.0 0.00 0.85 0.13 93 1013.4
20260904103503 69 196 0.0 0.0 0.00 0.85 0.13 93 1013.5
20260904103001 69 196 0.0 0.0 0.00 0.85 0.13 93 1013.4
20260904102501 69 196 0.0 0.0 0.00 0.85 0.13 93 1013.4
20260904102100 69 196 0.0 0.0 0.00 0.85 0.13 93 1013.3
20260904101604 69 196 0.0 0.0 0.00 0.85 0.13 92 1013.3
20260904101059 69 195 0.0 0.0 0.00 0.85 0.13 92 1013.2
20260904100559 69 189 0.0 0.0 0.00 0.85 0.13 92 1013.2
20260904100059 69 188 0.0 0.0 0.00 0.85 0.13 92 1013.3
20260904095602 69 188 0.0 0.0 0.00 0.85 0.13 92 1013.3
20260904095058 69 153 0.0 0.0 0.00 0.85 0.13 92 1013.3
20260904094559 69 141 0.0 0.0 0.00 0.85 0.13 92 1013.2
20260904094058 69 142 0.0 0.0 0.00 0.85 0.13 93 1013.2
20260904093558 70 184 0.0 1.0 0.00 0.85 0.13 92 1013.2
20260904093057 70 198 0.0 2.0 0.00 0.85 0.13 92 1013.2
20260904092556 70 157 0.0 1.0 0.00 0.85 0.13 92 1013.1
20260904092100 70 159 0.0 3.0 0.00 0.85 0.13 92 1013.1
20260904091556 70 159 0.0 5.0 0.00 0.85 0.13 92 1013.2
20260904091056 70 138 0.0 5.0 0.00 0.85 0.13 92 1013.2
20260904090555 70 219 0.0 0.0 0.00 0.85 0.13 92 1013.2
20260904090054 70 179 0.0 0.0 0.00 0.85 0.13 92 1013.0
20260904085554 70 179 0.0 0.0 0.00 0.85 0.13 92 1012.9
20260904085054 70 179 0.0 0.0 0.00 0.85 0.13 92 1012.9
20260904084558 70 178 0.0 0.0 0.00 0.85 0.13 92 1013.0
20260904084053 70 178 0.0 0.0 0.00 0.85 0.13 92 1012.9
20260904083553 70 179 0.0 0.0 0.00 0.85 0.13 92 1012.8
20260904083057 70 179 0.0 0.0 0.00 0.85 0.13 92 1012.9
20260904082553 70 179 0.0 0.0 0.00 0.85 0.13 92 1012.7
20260904082053 70 179 0.0 0.0 0.00 0.85 0.13 92 1012.7
20260904081552 70 179 0.0 0.0 0.00 0.85 0.13 92 1012.6
20260904081051 70 178 0.0 0.0 0.00 0.85 0.13 92 1012.5
20260904080551 70 178 0.0 0.0 0.00 0.85 0.13 92 1012.3
20260904080051 70 180 0.0 0.0 0.00 0.85 0.13 92 1012.4
20260904075550 70 180 0.0 0.0 0.00 0.85 0.13 92 1012.3
20260904075050 70 180 0.0 0.0 0.00 0.85 0.13 92 1012.2
20260904074600 70 180 0.0 0.0 0.00 0.85 0.13 92 1012.2
20260904074049 70 180 0.0 0.0 0.00 0.85 0.13 92 1012.1
20260904073552 70 144 0.0 0.0 0.00 0.85 0.13 92 1011.8
20260904073050 71 144 0.0 0.0 0.00 0.85 0.13 92 1011.9
20260904072549 71 144 0.0 0.0 0.00 0.85 0.13 92 1011.9
20260904072047 71 145 0.0 0.0 0.00 0.85 0.13 92 1012.0
20260904071548 71 145 0.0 0.0 0.00 0.85 0.13 92 1012.1
20260904071046 71 145 0.0 0.0 0.00 0.85 0.13 92 1012.1
20260904070548 71 144 0.0 0.0 0.00 0.85 0.13 92 1012.0
20260904070046 71 144 0.0 0.0 0.00 0.85 0.13 92 1012.2
20260904065649 71 92 0.0 0.0 0.00 0.85 0.13 92 1012.2
20260904065044 71 92 0.0 0.0 0.00 0.85 0.13 92 1012.2
20260904064544 71 92 0.0 0.0 0.00 0.85 0.13 92 1012.1
20260904064044 71 92 0.0 0.0 0.00 0.85 0.13 92 1012.1
20260904063544 71 92 0.0 0.0 0.00 0.85 0.13 92 1012.2
20260904063054 71 92 0.0 0.0 0.00 0.85 0.13 92 1012.1
20260904062548 72 92 0.0 0.0 0.00 0.85 0.13 92 1012.0
20260904062042 72 23 0.0 0.0 0.00 0.85 0.13 92 1012.0
20260904061541 72 16 0.0 0.0 0.00 0.85 0.13 92 1012.1
20260904061040 72 16 0.0 0.0 0.00 0.85 0.13 92 1012.2
20260904060539 72 16 0.0 0.0 0.00 0.85 0.13 92 1012.2
20260904060104 72 336 0.0 1.0 0.00 0.85 0.13 92 1012.3
20260904055538 72 336 0.0 1.0 0.00 0.85 0.13 92 1012.2
20260904055038 72 336 0.0 0.0 0.00 0.85 0.13 91 1012.3
20260904054539 72 336 0.0 0.0 0.00 0.85 0.13 92 1012.3
20260904054037 72 336 0.0 0.0 0.00 0.85 0.13 92 1012.4
20260904053537 72 336 0.0 0.0 0.00 0.85 0.13 92 1012.4
20260904053037 72 336 0.0 0.0 0.00 0.85 0.13 91 1012.4
20260904052537 72 336 0.0 0.0 0.00 0.85 0.13 91 1012.4
20260904052037 72 336 0.0 0.0 0.00 0.85 0.13 91 1012.4
20260904051535 72 336 0.0 0.0 0.01 0.85 0.13 91 1012.5
20260904051036 72 336 0.0 0.0 0.01 0.85 0.13 91 1012.4
20260904050534 72 336 0.0 0.0 0.02 0.85 0.13 91 1012.4
20260904050034 72 336 0.0 2.0 0.11 0.85 0.13 91 1012.5
20260904045533 72 336 0.0 2.0 0.33 0.91 0.13 91 1012.8
20260904045034 72 169 0.0 0.0 0.39 0.91 0.13 91 1012.7
20260904044542 72 169 0.0 2.0 0.56 0.91 0.13 91 1012.6
20260904044033 72 169 0.0 2.0 0.59 0.91 0.13 91 1012.6
20260904043533 73 169 0.0 0.0 0.60 0.91 0.13 91 1012.7
20260904043034 73 169 0.0 1.0 0.61 0.91 0.13 91 1012.7
20260904042532 73 169 0.0 4.0 0.63 0.91 0.13 91 1012.8
20260904042031 73 171 3.0 7.0 0.65 0.91 0.13 91 1012.6
20260904041530 73 155 3.0 7.0 0.65 0.90 0.12 90 1012.5
20260904041030 73 148 2.0 5.0 0.74 0.90 0.12 90 1012.6
20260904040528 73 360 1.0 8.0 0.80 0.88 0.10 91 1012.6
20260904040025 74 118 3.0 8.0 0.72 0.80 0.02 91 1012.7
20260904035525 74 153 0.0 5.0 0.50 0.68 0.56 90 1013.2
20260904035025 74 103 0.0 8.0 0.45 0.63 0.52 90 1012.8
20260904034524 74 253 3.0 5.0 0.26 0.44 0.33 90 1013.2
20260904034024 74 184 0.0 0.0 0.25 0.43 0.32 90 1012.7
20260904033524 74 184 0.0 0.0 0.24 0.42 0.31 90 1012.5
20260904033023 74 182 0.0 0.0 0.23 0.41 0.30 90 1012.4
20260904032524 74 182 0.0 0.0 0.21 0.39 0.28 90 1012.3
20260904032023 74 182 0.0 0.0 0.19 0.37 0.26 89 1012.5
20260904031522 74 184 0.0 0.0 0.18 0.36 0.25 89 1012.4
20260904031021 73 184 0.0 0.0 0.08 0.26 0.15 89 1012.5
20260904030521 73 184 0.0 0.0 0.01 0.19 0.08 89 1012.5
20260904030020 74 184 0.0 0.0 0.01 0.19 0.08 89 1012.4
20260904025520 74 184 0.0 0.0 0.00 0.45 0.07 88 1012.4
20260904025020 74 184 0.0 0.0 0.00 0.45 0.07 88 1012.3
20260904024520 74 184 0.0 0.0 0.00 0.45 0.07 88 1012.4
20260904024021 73 184 0.0 0.0 0.00 0.45 0.07 88 1012.4
20260904023518 74 184 0.0 0.0 0.00 0.45 0.07 88 1012.3
20260904023121 73 184 0.0 0.0 0.00 0.45 0.07 88 1012.2
20260904022519 74 184 0.0 0.0 0.00 0.45 0.07 88 1012.3
20260904022019 74 184 0.0 0.0 0.00 0.45 0.07 87 1012.5
20260904021522 74 184 0.0 0.0 0.00 0.45 0.07 87 1012.6
20260904021019 74 184 0.0 0.0 0.00 0.45 0.07 87 1012.6
20260904020520 74 184 0.0 0.0 0.00 0.45 0.07 87 1012.7
20260904020019 74 184 0.0 0.0 0.00 0.45 0.07 87 1012.8
20260904015517 74 184 0.0 0.0 0.00 0.53 0.07 87 1012.8
20260904015017 74 184 0.0 0.0 0.00 0.53 0.07 87 1012.8
20260904014522 74 184 0.0 0.0 0.00 0.53 0.07 87 1012.8
20260904014017 74 184 0.0 0.0 0.00 0.53 0.07 87 1012.9
20260904013517 74 184 0.0 0.0 0.00 0.53 0.07 86 1012.9
20260904013020 74 184 0.0 0.0 0.00 0.53 0.07 86 1012.9
20260904012522 74 184 0.0 0.0 0.00 0.53 0.07 86 1012.8
20260904012018 74 184 0.0 0.0 0.00 0.53 0.07 86 1012.8
20260904011527 74 184 0.0 0.0 0.00 0.53 0.07 86 1012.8
20260904011016 74 184 0.0 0.0 0.00 0.53 0.07 86 1012.9
20260904010518 74 184 0.0 0.0 0.00 0.53 0.07 85 1013.1
20260904010033 75 184 0.0 0.0 0.00 0.53 0.07 85 1013.0
20260904005516 75 184 0.0 0.0 0.00 0.53 0.07 85 1013.1
20260904005017 75 184 0.0 0.0 0.00 0.53 0.07 85 1013.0
20260904004516 75 184 0.0 0.0 0.00 0.53 0.07 84 1012.9
20260904004016 75 184 0.0 0.0 0.00 0.53 0.07 84 1012.8
20260904003519 75 184 0.0 0.0 0.00 0.53 0.07 84 1012.7
20260904003015 75 184 0.0 0.0 0.00 0.53 0.07 84 1012.6
20260904002515 75 184 0.0 0.0 0.00 0.53 0.07 84 1012.6
20260904002015 76 184 0.0 0.0 0.00 0.53 0.07 83 1012.6
20260904001515 76 184 0.0 0.0 0.00 0.53 0.07 83 1012.5
20260904001014 76 184 0.0 0.0 0.00 0.53 0.07 83 1012.5
20260904000514 76 184 0.0 0.0 0.00 0.53 0.07 83 1012.4
20260904000014 76 184 0.0 0.0 0.00 0.53 0.07 83 1012.5
20260903235514 76 184 0.0 0.0 0.00 0.53 0.07 82 1012.4
20260903235013 77 184 0.0 0.0 0.00 0.53 0.07 82 1012.3
20260903234514 77 184 0.0 0.0 0.00 0.53 0.07 82 1012.4
20260903234013 77 184 0.0 0.0 0.00 0.53 0.07 82 1012.4
20260903233515 77 184 0.0 0.0 0.00 0.53 0.07 81 1012.5
20260903233012 78 184 0.0 0.0 0.00 0.53 0.07 81 1012.6
20260903232512 78 184 0.0 0.0 0.00 0.53 0.07 81 1012.6
20260903232012 78 184 0.0 0.0 0.00 0.53 0.07 81 1012.6
20260903231513 79 184 0.0 0.0 0.00 0.53 0.07 80 1012.6
20260903231012 79 184 0.0 0.0 0.00 0.53 0.07 80 1012.6
20260903230511 79 184 0.0 0.0 0.00 0.53 0.07 80 1012.6
20260903230018 79 184 0.0 0.0 0.00 0.53 0.07 80 1012.6
20260903225512 80 184 0.0 0.0 0.00 0.53 0.07 79 1012.5
20260903225012 80 184 0.0 0.0 0.00 0.53 0.07 79 1012.3
20260903224521 80 184 0.0 0.0 0.00 0.53 0.07 79 1012.2
20260903224011 80 184 0.0 0.0 0.00 0.53 0.07 79 1012.3
20260903223511 81 184 0.0 0.0 0.00 0.53 0.07 78 1012.2
20260903223010 81 184 0.0 0.0 0.00 0.53 0.07 78 1012.2
20260903222509 81 184 0.0 0.0 0.00 0.53 0.07 77 1012.1
20260903222011 81 184 0.0 0.0 0.00 0.53 0.07 77 1012.0
20260903221511 82 184 0.0 0.0 0.00 0.53 0.07 77 1012.1
20260903221009 82 184 0.0 0.0 0.00 0.53 0.07 77 1012.0
20260903220509 82 184 0.0 0.0 0.00 0.53 0.07 76 1011.9
20260903220016 83 184 0.0 0.0 0.00 0.53 0.07 76 1011.9
20260903215512 83 184 0.0 0.0 0.00 0.53 0.07 75 1011.9
20260903215009 83 184 0.0 0.0 0.00 0.53 0.07 74 1011.9
20260903214506 83 184 0.0 0.0 0.00 0.53 0.07 74 1012.0
20260903214006 84 184 0.0 0.0 0.00 0.53 0.07 73 1012.0
20260903213505 84 184 0.0 0.0 0.00 0.53 0.07 72 1012.1
20260903213010 84 184 0.0 2.0 0.00 0.53 0.07 71 1012.1
20260903212508 85 259 0.0 6.0 0.00 0.53 0.07 70 1012.2
20260903212005 85 259 1.0 6.0 0.00 0.53 0.07 69 1012.1
20260903211511 85 285 0.0 5.0 0.00 0.53 0.07 69 1012.1
20260903211004 85 219 1.0 7.0 0.00 0.53 0.07 69 1012.1
20260903210504 85 246 4.0 7.0 0.00 0.53 0.07 68 1012.3
20260903210005 85 249 2.0 6.0 0.00 0.53 0.07 68 1012.2
20260903205503 85 227 0.0 6.0 0.00 0.54 0.07 68 1012.2
20260903205002 85 207 3.0 9.0 0.00 0.54 0.07 68 1012.3
20260903204501 85 231 0.0 5.0 0.00 0.54 0.07 71 1012.3
20260903204002 85 226 2.0 5.0 0.00 0.54 0.07 70 1012.3
20260903203600 84 293 2.0 6.0 0.00 0.54 0.07 71 1012.4
20260903203059 84 267 2.0 5.0 0.00 0.54 0.07 73 1012.4
20260903202559 84 275 0.0 7.0 0.00 0.54 0.07 74 1012.6
20260903202058 84 280 0.0 6.0 0.00 0.54 0.07 72 1012.7
20260903201558 84 281 0.0 9.0 0.00 0.54 0.07 70 1012.8
20260903201058 84 259 3.0 9.0 0.00 0.54 0.07 70 1012.8
20260903200557 84 262 2.0 10.0 0.00 0.54 0.07 69 1012.8
20260903200058 85 264 4.0 10.0 0.00 0.54 0.07 68 1012.8
20260903195600 85 290 1.0 7.0 0.00 0.54 0.07 70 1012.8
20260903195058 85 123 0.0 7.0 0.00 0.54 0.07 69 1012.8
20260903194556 85 250 2.0 10.0 0.00 0.54 0.07 69 1012.7
20260903194056 85 240 3.0 9.0 0.00 0.54 0.07 68 1012.6
20260903193558 85 229 3.0 9.0 0.00 0.54 0.07 69 1012.6
20260903193053 84 240 2.0 9.0 0.00 0.54 0.07 70 1012.6
20260903192553 84 239 4.0 9.0 0.00 0.54 0.07 69 1012.8
20260903192050 84 268 2.0 9.0 0.00 0.54 0.07 72 1012.9
20260903191549 83 284 3.0 8.0 0.00 0.54 0.07 73 1012.9
20260903191048 83 250 2.0 8.0 0.00 0.54 0.07 73 1013.0
20260903190547 83 218 3.0 8.0 0.00 0.54 0.07 75 1013.0
20260903190046 82 247 0.0 8.0 0.00 0.54 0.07 75 1013.2
20260903185544 82 232 3.0 10.0 0.00 0.54 0.07 73 1013.4
20260903185044 82 289 4.0 10.0 0.00 0.54 0.07 73 1013.4
20260903184544 82 215 2.0 8.0 0.00 0.54 0.07 73 1013.4
20260903184043 82 250 4.0 8.0 0.00 0.54 0.07 74 1013.4
20260903183542 82 279 2.0 10.0 0.00 0.54 0.07 75 1013.5
20260903183042 82 319 1.0 10.0 0.00 0.54 0.07 74 1013.4
20260903182541 82 213 1.0 8.0 0.00 0.54 0.07 79 1013.5
20260903182041 81 229 0.0 7.0 0.00 0.54 0.07 78 1013.5
20260903181539 81 257 0.0 0.0 0.00 0.54 0.07 79 1013.5
20260903181039 81 253 0.0 0.0 0.00 0.54 0.07 78 1013.6
20260903180538 81 253 0.0 2.0 0.00 0.54 0.07 77 1013.7
20260903180038 81 254 0.0 1.0 0.00 0.54 0.07 78 1013.7
20260903175537 81 254 0.0 0.0 0.00 0.54 0.07 77 1013.7
20260903175037 81 254 0.0 3.0 0.00 0.54 0.07 77 1013.7
20260903174556 81 275 0.0 5.0 0.00 0.54 0.07 77 1013.7
20260903174038 81 305 0.0 7.0 0.00 0.54 0.07 76 1013.6
20260903173535 81 230 2.0 8.0 0.00 0.54 0.07 77 1013.7
20260903173039 81 281 3.0 8.0 0.00 0.54 0.07 78 1013.9
20260903172534 80 244 2.0 8.0 0.00 0.54 0.07 77 1013.9
20260903172033 80 233 4.0 8.0 0.00 0.54 0.07 78 1013.9
20260903171534 80 163 1.0 6.0 0.00 0.54 0.07 80 1013.9
20260903171031 79 269 2.0 6.0 0.00 0.54 0.07 80 1014.0
20260903170532 79 196 0.0 6.0 0.00 0.54 0.07 81 1014.0
20260903170034 78 180 0.0 6.0 0.00 0.54 0.07 83 1014.0
20260903165527 78 239 1.0 6.0 0.00 0.54 0.07 83 1014.0
20260903165027 78 250 2.0 9.0 0.00 0.54 0.07 83 1014.1
20260903164525 78 270 4.0 9.0 0.00 0.54 0.07 85 1014.1
20260903164025 77 246 0.0 0.0 0.00 0.54 0.07 86 1014.2
20260903163524 77 243 0.0 0.0 0.00 0.54 0.07 87 1014.2
20260903163023 77 219 0.0 0.0 0.00 0.54 0.07 87 1014.3
20260903162523 77 217 0.0 0.0 0.00 0.54 0.07 87 1014.3
20260903162023 76 236 0.0 0.0 0.00 0.54 0.07 88 1014.4
20260903161524 76 217 0.0 2.0 0.00 0.54 0.07 88 1014.5
20260903161024 76 247 0.0 7.0 0.00 0.54 0.07 88 1014.4
20260903160519 76 252 2.0 7.0 0.00 0.54 0.07 89 1014.4
20260903160019 75 236 0.0 6.0 0.00 0.54 0.07 90 1014.5
20260903155519 75 277 1.0 7.0 0.00 0.56 0.07 91 1014.5
20260903155018 75 254 3.0 10.0 0.00 0.56 0.07 92 1014.6
20260903154516 75 248 3.0 10.0 0.00 0.56 0.07 93 1014.7
20260903154017 75 266 4.0 9.0 0.00 0.56 0.07 93 1014.8
20260903153516 75 128 0.0 8.0 0.00 0.56 0.07 94 1014.8
20260903153013 74 260 3.0 8.0 0.00 0.56 0.07 94 1014.9
20260903152513 73 289 1.0 4.0 0.00 0.56 0.07 94 1014.9
20260903152010 73 232 2.0 5.0 0.00 0.56 0.07 94 1014.9
20260903151510 73 333 2.0 8.0 0.00 0.56 0.07 94 1015.0
20260903151008 73 321 3.0 8.0 0.00 0.56 0.07 94 1014.9
20260903150507 73 280 2.0 4.0 0.00 0.56 0.07 94 1014.9
20260903150006 73 258 0.0 0.0 0.00 0.56 0.07 94 1014.9
20260903145508 72 258 0.0 0.0 0.00 0.88 0.07 94 1014.9
20260903145003 72 258 0.0 0.0 0.00 0.88 0.07 94 1014.9
20260903144502 72 283 0.0 0.0 0.00 0.88 0.07 94 1014.9
20260903144002 72 283 0.0 0.0 0.00 0.88 0.07 94 1015.0
20260903143559 71 283 0.0 0.0 0.00 0.88 0.07 94 1014.9
20260903143058 71 283 0.0 1.0 0.00 0.88 0.07 94 1014.9
20260903142558 71 283 0.0 2.0 0.00 0.88 0.07 94 1015.0